sat.trackr.live / text

‹ back to catalog

STARLINK-37231

NORAD 68624 · 2026-073Y

PAYLOAD ACTIVE UNKNOWN

§ Identity

Operator
Country
US
Launch date
2026-04-07
Launch site
AFWTR
Launch vehicle
Mass (kg)
RCS (m²)

Purposes: comms

External: N2YO · Heavens-Above · Gunter

§ Orbital elements

Epoch: 2026-09-20T00:00:01.296864Z

Period
93.91 min
Inclination
97.2846°
Eccentricity
0.0001735
Mean motion
15.33447532 rev/d
Perigee alt
464.3 km
Apogee alt
466.7 km
Semi-major
6,843.7 km
B*
3.7714e-4
RAAN
101.0182°
Arg perigee
97.8677°
Mean anomaly
262.2763°
Rev number
2,566

§ Raw data

STARLINK-372311 68624U 26073Y   26263.00001501  .00012121  00000+0  37714-3 0  99912 68624  97.2846 101.0182 0001735  97.8677 262.2763 15.33447532 25661

JSON: /api/v1/satellites/68624 · /tle

For live sub-satellite position, see the globe view (requires WebGL).

§ Visibility from observer

Set your observer location to see the next 7 days of passes ≥ 10°. The values pass through the URL so the page stays shareable.

No JS? Fill the form by hand. The geolocation button needs JavaScript.